ProjectID,Date,Electric Generation,Electric Utility Import,Facility Electric Load
,YYYY-MM-DD,kW,kW,kW
434,2017-04-01,0.0,0.0,0.0
434,2017-04-02,0.0,0.0,0.0
434,2017-04-03,0.0,0.0,0.0
434,2017-04-04,0.0,0.0,0.0
434,2017-04-05,0.0,0.0,0.0
434,2017-04-06,0.0,0.0,0.0
434,2017-04-07,0.0,0.0,0.0
434,2017-04-08,0.0,0.0,0.0
434,2017-04-09,0.0,0.0,0.0
434,2017-04-10,0.0,0.0,0.0
434,2017-04-11,0.0,0.0,0.0
434,2017-04-12,0.0,0.0,0.0
434,2017-04-13,0.0,0.0,0.0
434,2017-04-14,0.0,0.0,0.0
434,2017-04-15,0.0,0.0,0.0
434,2017-04-16,0.0,0.0,0.0
434,2017-04-17,0.0,0.0,0.0
434,2017-04-18,0.0,0.0,0.0
434,2017-04-19,0.0,0.0,0.0
434,2017-04-20,0.0,0.0,0.0
434,2017-04-21,0.0,0.0,0.0
434,2017-04-22,0.0,0.0,0.0
434,2017-04-23,0.0,0.0,0.0
434,2017-04-24,0.0,0.0,0.0
434,2017-04-25,0.0,0.0,0.0
434,2017-04-26,0.0,0.0,0.0
434,2017-04-27,0.4054166666666667,0.0,0.4054166666666667
434,2017-04-28,24.366666666666664,10.254083333333334,34.62075
434,2017-04-29,0.0,34.40329166666667,34.40329166666667
434,2017-04-30,0.0,34.879958333333335,34.879958333333335
434,2017-05-01,42.63916666666667,17.939249999999998,60.57841666666667
434,2017-05-02,73.64958333333333,7.216833333333334,80.86641666666665
434,2017-05-03,73.21541666666667,7.751625,80.96704166666667
434,2017-05-04,69.14999999999999,8.646291666666666,77.79629166666666
434,2017-05-05,81.865,7.078291666666666,88.94329166666667
434,2017-05-06,48.92250000000001,18.175541666666668,67.09804166666667
434,2017-05-07,44.284166666666664,20.510708333333334,64.79487499999999
434,2017-05-08,44.27375,18.434958333333334,62.708708333333334
434,2017-05-09,70.97166666666666,9.331541666666666,80.30320833333333
434,2017-05-10,82.43541666666667,6.077541666666666,88.51295833333333
434,2017-05-11,71.5575,9.993166666666667,81.55066666666667
434,2017-05-12,82.42791666666666,4.788541666666666,87.21645833333332
434,2017-05-13,62.09125,15.574708333333334,77.66595833333334
434,2017-05-14,62.77333333333333,11.851083333333333,74.62441666666666
434,2017-05-15,57.770833333333336,12.710958333333332,70.48179166666667
434,2017-05-16,67.82041666666667,8.37175,76.19216666666668
434,2017-05-17,66.37291666666667,9.604416666666667,75.97733333333333
434,2017-05-18,73.24833333333333,9.943875,83.19220833333334
434,2017-05-19,64.10958333333333,18.781625000000002,82.89120833333334
434,2017-05-20,52.28583333333333,18.496583333333334,70.78241666666666
434,2017-05-21,52.78333333333333,15.368333333333332,68.15166666666667
434,2017-05-22,64.36541666666666,11.580458333333333,75.945875
434,2017-05-23,74.03833333333334,7.869625,81.90795833333334
434,2017-05-24,65.3,10.282916666666667,75.58291666666666
434,2017-05-25,59.70166666666666,12.937208333333333,72.638875
434,2017-05-26,72.14541666666666,8.244208333333333,80.389625
434,2017-05-27,57.85541666666666,13.39025,71.24566666666666
434,2017-05-28,55.94916666666666,12.587833333333334,68.53699999999999
434,2017-05-29,69.39,9.622416666666666,79.01241666666667
434,2017-05-30,71.085,8.968083333333334,80.05308333333333
434,2017-05-31,51.21958333333333,10.58525,61.804833333333335
434,2017-06-01,0.44333333333333336,0.0,0.44333333333333336
434,2017-06-02,34.339999999999996,12.09775,46.437749999999994
434,2017-06-03,30.266666666666666,16.34958333333333,46.616249999999994
434,2017-06-04,14.8275,24.991625,39.819125
434,2017-06-05,36.57041666666667,15.273958333333333,51.844375
434,2017-06-06,44.64208333333334,10.394041666666666,55.036125000000006
434,2017-06-07,48.815,9.031166666666666,57.84616666666666
434,2017-06-08,46.959583333333335,10.120208333333332,57.079791666666665
434,2017-06-09,31.508750000000003,12.413833333333335,43.922583333333336
434,2017-06-10,31.207083333333333,12.650416666666667,43.8575
434,2017-06-11,31.05666666666667,19.516000000000002,50.57266666666667
434,2017-06-12,42.99208333333333,24.515541666666667,67.507625
434,2017-06-13,45.83375,37.969458333333336,83.80320833333334
434,2017-06-14,62.80041666666667,24.679291666666668,87.47970833333333
434,2017-06-15,64.35125000000001,47.77420833333333,112.12545833333334
434,2017-06-16,59.46,40.61475,100.07475
434,2017-06-17,27.14625,81.495625,108.641875
434,2017-06-18,38.419583333333335,80.03020833333333,118.44979166666667
434,2017-06-19,41.29208333333333,76.36666666666666,117.65875
434,2017-06-20,53.33958333333334,63.57149999999999,116.91108333333332
434,2017-06-21,66.92541666666666,55.060833333333335,121.98625
434,2017-06-22,67.6075,60.912125,128.51962500000002
434,2017-06-23,69.12333333333333,73.76858333333332,142.89191666666665
434,2017-06-24,46.85541666666666,102.86595833333332,149.721375
434,2017-06-25,44.51916666666667,93.07825000000001,137.59741666666667
434,2017-06-26,61.85916666666666,57.23533333333333,119.09449999999998
434,2017-06-27,66.89208333333333,44.254999999999995,111.14708333333333
434,2017-06-28,63.73666666666667,40.75416666666667,104.49083333333334
434,2017-06-29,64.6375,43.65054166666667,108.28804166666667
434,2017-06-30,61.57041666666667,63.09233333333333,124.66274999999999
434,2017-07-01,44.39875,86.48945833333333,130.88820833333332
434,2017-07-02,47.07333333333333,93.25075,140.32408333333333
434,2017-07-03,64.19041666666666,84.17033333333333,148.36075
434,2017-07-04,59.20666666666667,89.31070833333332,148.517375
434,2017-07-05,66.83375,71.00433333333334,137.83808333333332
434,2017-07-06,67.69541666666667,56.166666666666664,123.86208333333335
434,2017-07-07,65.89666666666666,59.28875,125.18541666666667
434,2017-07-08,43.69625,92.75958333333334,136.45583333333335
434,2017-07-09,42.52291666666667,89.15333333333332,131.67624999999998
434,2017-07-10,68.97791666666667,65.59033333333333,134.56825
434,2017-07-11,67.81291666666667,81.111,148.92391666666668
434,2017-07-12,60.60208333333333,107.89108333333333,168.49316666666667
434,2017-07-13,64.9975,114.28625,179.28375
434,2017-07-14,63.39875,74.026,137.42475
434,2017-07-15,44.48041666666666,98.85895833333332,143.339375
434,2017-07-16,39.6975,101.014,140.7115
434,2017-07-17,66.00875,77.03099999999999,143.03975
434,2017-07-18,66.52833333333334,87.47720833333334,154.00554166666666
434,2017-07-19,59.732499999999995,113.24883333333334,172.98133333333334
434,2017-07-20,62.314166666666665,125.68808333333334,188.00225
434,2017-07-21,55.77458333333333,126.76745833333332,182.54204166666665
434,2017-07-22,35.93875,143.74554166666667,179.68429166666667
434,2017-07-23,46.78541666666666,119.10008333333333,165.88549999999998
434,2017-07-24,68.12541666666667,53.952625000000005,122.07804166666668
434,2017-07-25,65.40583333333333,38.84016666666667,104.24600000000001
434,2017-07-26,63.65166666666667,41.72570833333334,105.377375
434,2017-07-27,67.0825,39.175125,106.25762499999999
434,2017-07-28,43.80916666666667,82.77054166666666,126.57970833333333
434,2017-07-29,42.821666666666665,67.43375,110.25541666666666
434,2017-07-30,46.93125,68.42979166666667,115.36104166666667
434,2017-07-31,66.52791666666667,57.363791666666664,123.89170833333333
434,2017-08-01,65.37708333333333,78.51020833333332,143.88729166666667
434,2017-08-02,67.93583333333333,78.142625,146.07845833333334
434,2017-08-03,53.622083333333336,87.70216666666666,141.32425
434,2017-08-04,67.205,68.76716666666667,135.97216666666668
434,2017-08-05,29.540000000000003,105.16579166666666,134.70579166666667
434,2017-08-06,42.58083333333334,65.62025,108.20108333333334
434,2017-08-07,69.60875,38.72483333333333,108.33358333333334
434,2017-08-08,69.515,38.43266666666667,107.94766666666666
434,2017-08-09,69.68666666666667,46.129041666666666,115.81570833333333
434,2017-08-10,67.1875,54.274166666666666,121.46166666666667
434,2017-08-11,52.663333333333334,66.81804166666667,119.48137500000001
434,2017-08-12,31.954166666666666,85.242375,117.19654166666666
434,2017-08-13,44.77708333333334,78.86325000000001,123.64033333333334
434,2017-08-14,64.38791666666667,61.698791666666665,126.08670833333333
434,2017-08-15,64.81833333333334,60.059333333333335,124.87766666666667
434,2017-08-16,72.30458333333333,56.839666666666666,129.14425
434,2017-08-17,66.19958333333334,62.769875000000006,128.96945833333334
434,2017-08-18,63.555,78.40745833333334,141.96245833333333
434,2017-08-19,40.33541666666667,111.164375,151.49979166666668
434,2017-08-20,37.21666666666667,101.69783333333334,138.9145
434,2017-08-21,63.805,75.39895833333334,139.20395833333333
434,2017-08-22,62.468333333333334,101.42424999999999,163.89258333333333
434,2017-08-23,61.70083333333333,82.20054166666667,143.901375
434,2017-08-24,64.89833333333333,62.786249999999995,127.68458333333332
434,2017-08-25,72.93875,46.794041666666665,119.73279166666666
434,2017-08-26,33.294583333333335,81.81979166666666,115.114375
434,2017-08-27,42.40958333333334,70.80691666666667,113.2165
434,2017-08-28,62.335,44.62270833333333,106.95770833333333
434,2017-08-29,56.82,45.03091666666666,101.85091666666666
434,2017-08-30,53.97333333333333,41.24391666666667,95.21725
434,2017-08-31,62.44916666666666,41.30770833333333,103.756875
434,2017-09-01,57.479166666666664,34.56579166666666,92.04495833333333
434,2017-09-02,40.712916666666665,50.51,91.22291666666666
434,2017-09-03,42.0075,48.401999999999994,90.4095
434,2017-09-04,62.024166666666666,32.041125,94.06529166666667
434,2017-09-05,61.64666666666667,42.326,103.97266666666667
434,2017-09-06,66.27166666666666,37.293875,103.56554166666666
434,2017-09-07,52.49583333333334,41.89641666666667,94.39225
434,2017-09-08,49.47833333333333,40.495875,89.97420833333334
434,2017-09-09,45.742916666666666,44.5375,90.28041666666667
434,2017-09-10,45.85541666666666,47.47291666666666,93.32833333333332
434,2017-09-11,55.285,36.07866666666667,91.36366666666666
434,2017-09-12,52.642500000000005,42.56608333333333,95.20858333333334
434,2017-09-13,54.802083333333336,43.25833333333333,98.06041666666667
434,2017-09-14,66.57125,38.61320833333333,105.18445833333334
434,2017-09-15,66.63083333333334,46.02154166666667,112.652375
434,2017-09-16,43.655833333333334,85.998625,129.65445833333334
434,2017-09-17,48.000416666666666,72.29170833333333,120.292125
434,2017-09-18,63.99166666666667,43.536875,107.52854166666667
434,2017-09-19,65.93916666666667,39.188250000000004,105.12741666666668
434,2017-09-20,58.923750000000005,46.097375,105.02112500000001
434,2017-09-21,61.27666666666667,50.70316666666667,111.97983333333335
434,2017-09-22,55.63291666666667,50.938375,106.57129166666667
434,2017-09-23,45.651250000000005,72.76716666666667,118.41841666666667
434,2017-09-24,33.76208333333333,101.73333333333333,135.49541666666667
434,2017-09-25,68.29791666666667,68.02420833333333,136.322125
434,2017-09-26,60.548750000000005,68.86620833333333,129.41495833333335
434,2017-09-27,92.27291666666667,38.97291666666667,131.24583333333334
434,2017-09-28,93.25333333333333,28.268083333333333,121.52141666666667
434,2017-09-29,73.51041666666667,24.197333333333333,97.70775
434,2017-09-30,72.56458333333333,23.52,96.08458333333333
434,2017-10-01,70.15083333333332,23.931124999999998,94.08195833333332
434,2017-10-02,67.04875,23.70325,90.752
434,2017-10-03,51.385416666666664,37.91595833333333,89.301375
434,2017-10-04,50.719166666666666,37.648291666666665,88.36745833333333
434,2017-10-05,51.344166666666666,41.09804166666667,92.44220833333333
434,2017-10-06,52.897083333333335,43.35058333333333,96.24766666666667
434,2017-10-07,53.4075,51.290708333333335,104.69820833333333
434,2017-10-08,53.281666666666666,56.70704166666667,109.98870833333334
434,2017-10-09,53.39166666666667,61.205625,114.59729166666668
434,2017-10-10,53.84791666666666,54.50895833333333,108.356875
434,2017-10-11,53.8525,49.930416666666666,103.78291666666667
434,2017-10-12,52.91625,39.48566666666667,92.40191666666666
434,2017-10-13,50.605,39.08645833333333,89.69145833333333
434,2017-10-14,51.057500000000005,42.90270833333333,93.96020833333333
434,2017-10-15,52.0975,44.99120833333333,97.08870833333333
434,2017-10-16,49.63791666666666,42.83958333333334,92.47749999999999
434,2017-10-17,48.784166666666664,40.408,89.19216666666667
434,2017-10-18,48.415,41.16579166666667,89.58079166666667
434,2017-10-19,48.39625,39.238791666666664,87.63504166666667
434,2017-10-20,48.22125,39.746833333333335,87.96808333333334
434,2017-10-21,48.598749999999995,43.54233333333334,92.14108333333334
434,2017-10-22,48.04083333333333,43.419125,91.45995833333333
434,2017-10-23,48.173750000000005,43.38558333333333,91.55933333333334
434,2017-10-24,49.10708333333333,44.62558333333333,93.73266666666666
434,2017-10-25,39.29958333333334,50.56391666666667,89.86350000000002
434,2017-10-26,16.9375,75.51774999999999,92.45524999999999
434,2017-10-27,43.57125,44.29470833333334,87.86595833333334
434,2017-10-28,34.76125,54.156,88.91725
434,2017-10-29,22.56625,76.362375,98.928625
434,2017-10-30,36.572916666666664,57.20666666666667,93.77958333333333
434,2017-10-31,39.60541666666666,54.08279166666667,93.68820833333334
434,2017-11-01,38.82083333333333,51.01283333333333,89.83366666666666
434,2017-11-02,48.105,37.62354166666667,85.72854166666667
434,2017-11-03,49.01125,33.45854166666667,82.46979166666667
434,2017-11-04,50.156666666666666,39.534375000000004,89.69104166666668
434,2017-11-05,51.07125,41.48320833333333,92.55445833333333
434,2017-11-06,50.19625,38.90116666666667,89.09741666666667
434,2017-11-07,51.7075,42.43179166666667,94.13929166666668
434,2017-11-08,51.32749999999999,37.91916666666666,89.24666666666666
434,2017-11-09,49.84708333333333,35.92666666666667,85.77375
434,2017-11-10,49.2075,39.81883333333334,89.02633333333334
434,2017-11-11,42.21541666666666,57.305708333333335,99.521125
434,2017-11-12,33.27875,62.71041666666667,95.98916666666668
434,2017-11-13,62.54083333333333,27.736,90.27683333333333
434,2017-11-14,60.33208333333334,27.555000000000003,87.88708333333334
434,2017-11-15,50.03666666666667,34.86470833333333,84.901375
434,2017-11-16,54.09041666666667,29.88479166666667,83.97520833333334
434,2017-11-17,43.093333333333334,44.78041666666667,87.87375
434,2017-11-18,33.1025,57.09908333333333,90.20158333333333
434,2017-11-19,50.07791666666666,42.01079166666667,92.08870833333333
434,2017-11-20,51.89833333333333,45.74220833333334,97.64054166666668
434,2017-11-21,42.63166666666667,45.804916666666664,88.43658333333333
434,2017-11-22,48.61041666666667,42.18029166666667,90.79070833333334
434,2017-11-23,47.90541666666667,43.46045833333333,91.36587499999999
434,2017-11-24,59.982499999999995,26.125333333333334,86.10783333333333
434,2017-11-25,57.93958333333333,25.792166666666663,83.73174999999999
434,2017-11-26,61.89791666666667,26.386,88.28391666666667
434,2017-11-27,56.12708333333333,26.89325,83.02033333333333
434,2017-11-28,31.15833333333333,54.76825,85.92658333333333
434,2017-11-29,48.803333333333335,36.16308333333333,84.96641666666667
434,2017-11-30,54.088750000000005,31.153875,85.242625
434,2017-12-01,51.88666666666666,32.22320833333333,84.10987499999999
434,2017-12-02,29.352500000000003,57.293,86.6455
434,2017-12-03,43.56708333333333,43.496916666666664,87.064
434,2017-12-04,54.99208333333333,28.54733333333333,83.53941666666667
434,2017-12-05,53.587916666666665,31.165625000000002,84.75354166666666
434,2017-12-06,50.762499999999996,40.593125,91.355625
434,2017-12-07,51.276250000000005,37.21641666666667,88.49266666666668
434,2017-12-08,47.97958333333333,40.041125,88.02070833333333
434,2017-12-09,51.180416666666666,41.97845833333333,93.158875
434,2017-12-10,55.95666666666667,34.06025,90.01691666666667
434,2017-12-11,56.65,29.435708333333334,86.08570833333333
434,2017-12-12,49.79541666666666,36.63170833333333,86.42712499999999
434,2017-12-13,25.012916666666666,65.61016666666667,90.62308333333334
434,2017-12-14,20.058333333333334,71.84566666666667,91.90400000000001
434,2017-12-15,55.36333333333334,34.305875,89.66920833333333
434,2017-12-16,63.00875,28.45804166666667,91.46679166666667
434,2017-12-17,57.10666666666666,34.116375,91.22304166666666
434,2017-12-18,58.33083333333334,30.439375,88.77020833333333
434,2017-12-19,52.12916666666666,32.52108333333333,84.65025
434,2017-12-20,57.012499999999996,29.011416666666666,86.02391666666666
434,2017-12-21,50.79208333333333,34.69258333333333,85.48466666666667
434,2017-12-22,55.94541666666667,33.85754166666667,89.80295833333334
434,2017-12-23,64.55458333333333,29.667541666666665,94.22212499999999
434,2017-12-24,65.405,27.39270833333333,92.79770833333333
434,2017-12-25,65.20708333333333,27.493125000000003,92.70020833333334
434,2017-12-26,64.72625000000001,27.075999999999997,91.80225
434,2017-12-27,66.07916666666667,26.694541666666666,92.77370833333333
434,2017-12-28,67.32291666666667,27.796125,95.11904166666667
434,2017-12-29,68.44875,27.394625,95.84337500000001
434,2017-12-30,65.10791666666667,31.51370833333333,96.621625
434,2017-12-31,71.81708333333333,30.739541666666668,102.556625
434,2018-01-01,70.26708333333333,31.825999999999997,102.09308333333333
434,2018-01-02,62.153333333333336,33.487125,95.64045833333333
434,2018-01-03,49.590833333333336,43.669666666666664,93.26050000000001
434,2018-01-04,57.055416666666666,43.643166666666666,100.69858333333333
434,2018-01-05,71.96541666666667,31.9345,103.89991666666667
434,2018-01-06,67.51458333333333,41.24458333333333,108.75916666666666
434,2018-01-07,69.21625,34.16283333333333,103.37908333333334
434,2018-01-08,64.95,31.658,96.608
434,2018-01-09,63.52041666666667,28.055208333333336,91.575625
434,2018-01-10,53.62125,31.072833333333335,84.69408333333334
434,2018-01-11,57.30625,25.923875,83.230125
434,2018-01-12,59.01208333333333,26.010166666666667,85.02225
434,2018-01-13,58.82791666666666,29.213291666666667,88.04120833333333
434,2018-01-14,61.65625,29.578541666666666,91.23479166666667
434,2018-01-15,60.91083333333333,28.858166666666666,89.76899999999999
434,2018-01-16,62.182500000000005,26.374291666666664,88.55679166666667
434,2018-01-17,57.37958333333333,28.235333333333333,85.61491666666666
434,2018-01-18,56.54291666666666,28.233208333333334,84.776125
434,2018-01-19,41.3775,42.631875,84.009375
434,2018-01-20,56.05083333333334,28.190375,84.24120833333333
434,2018-01-21,57.666666666666664,27.299083333333332,84.96575
434,2018-01-22,57.115833333333335,26.25975,83.37558333333334
434,2018-01-23,57.53541666666666,26.411458333333332,83.94687499999999
434,2018-01-24,56.505833333333335,26.957166666666666,83.463
434,2018-01-25,57.37875,26.942375,84.321125
434,2018-01-26,57.913333333333334,27.25825,85.17158333333333
434,2018-01-27,56.5275,29.409499999999998,85.937
434,2018-01-28,59.467083333333335,28.18404166666667,87.65112500000001
434,2018-01-29,56.615833333333335,27.030666666666665,83.6465
434,2018-01-30,49.83083333333334,35.82833333333333,85.65916666666666
434,2018-01-31,35.26416666666667,50.685249999999996,85.94941666666666
434,2018-02-01,47.986250000000005,35.20129166666667,83.18754166666668
434,2018-02-02,49.802083333333336,36.419958333333334,86.22204166666667
434,2018-02-03,54.81708333333333,34.255583333333334,89.07266666666666
434,2018-02-04,44.427083333333336,44.491458333333334,88.91854166666667
434,2018-02-05,53.89625,31.24308333333333,85.13933333333333
434,2018-02-06,57.489583333333336,26.825125,84.31470833333333
434,2018-02-07,57.79458333333333,27.559375,85.35395833333332
434,2018-02-08,54.94083333333333,27.918916666666664,82.85974999999999
434,2018-02-09,49.19541666666667,37.235625,86.43104166666666
434,2018-02-10,56.44708333333333,31.062791666666666,87.509875
434,2018-02-11,54.095,30.737291666666668,84.83229166666666
434,2018-02-12,55.94916666666666,26.342541666666666,82.29170833333333
434,2018-02-13,54.69583333333333,26.32120833333333,81.01704166666667
434,2018-02-14,48.19916666666666,31.925833333333333,80.125
434,2018-02-15,52.77125,26.74475,79.516
434,2018-02-16,54.502916666666664,26.899958333333334,81.402875
434,2018-02-17,46.58916666666667,37.35508333333333,83.94425000000001
434,2018-02-18,56.63041666666667,26.527708333333333,83.158125
434,2018-02-19,55.33208333333334,29.517083333333332,84.84916666666666
434,2018-02-20,54.655,26.133041666666667,80.78804166666667
434,2018-02-21,42.90708333333333,35.93266666666667,78.83975000000001
434,2018-02-22,44.8125,35.998333333333335,80.81083333333333
434,2018-02-23,45.64291666666667,34.49691666666667,80.13983333333334
434,2018-02-24,45.80875,35.91233333333333,81.72108333333333
434,2018-02-25,47.024166666666666,36.972125,83.99629166666666
434,2018-02-26,54.473749999999995,26.079624999999997,80.55337499999999
434,2018-02-27,52.20166666666666,26.17770833333333,78.379375
434,2018-02-28,50.58625,25.946083333333334,76.53233333333333
434,2018-03-01,52.52166666666667,25.902416666666667,78.42408333333333
434,2018-03-02,57.25375,26.67995833333333,83.93370833333333
434,2018-03-03,56.78916666666667,26.633458333333333,83.422625
434,2018-03-04,59.87583333333333,26.082250000000002,85.95808333333333
434,2018-03-05,54.67333333333334,26.032375000000002,80.70570833333335
434,2018-03-06,51.08166666666667,26.083250000000003,77.16491666666667
434,2018-03-07,58.89958333333333,25.489625,84.38920833333333
434,2018-03-08,55.46958333333333,25.617791666666665,81.087375
434,2018-03-09,52.60958333333334,26.252041666666667,78.861625
434,2018-03-10,53.838750000000005,28.22475,82.0635
434,2018-03-11,55.29708333333334,27.229541666666666,82.52662500000001
434,2018-03-12,52.53791666666667,26.272750000000002,78.81066666666666
434,2018-03-13,54.62041666666667,26.579083333333333,81.1995
434,2018-03-14,52.71875,26.226541666666666,78.94529166666666
434,2018-03-15,53.147083333333335,26.391916666666663,79.539
434,2018-03-16,52.399166666666666,26.293625000000002,78.69279166666666
434,2018-03-17,54.98875,26.730500000000003,81.71925
434,2018-03-18,54.98291666666666,27.227249999999998,82.21016666666665
434,2018-03-19,51.35541666666666,26.190250000000002,77.54566666666666
434,2018-03-20,50.529583333333335,27.161875,77.69145833333333
434,2018-03-21,56.46625,26.803208333333334,83.26945833333333
434,2018-03-22,53.035,26.141125,79.176125
434,2018-03-23,50.5425,25.845,76.38749999999999
434,2018-03-24,53.916666666666664,25.903750000000002,79.82041666666666
434,2018-03-25,53.0975,26.884,79.9815
434,2018-03-26,20.96708333333333,58.440666666666665,79.40775
434,2018-03-27,36.775416666666665,43.161458333333336,79.936875
434,2018-03-28,51.240833333333335,25.637,76.87783333333334
434,2018-03-29,52.54624999999999,25.787666666666667,78.33391666666665
434,2018-03-30,53.54583333333333,26.494583333333335,80.04041666666666
434,2018-03-31,51.986250000000005,26.899375000000003,78.885625
434,2018-04-01,53.39333333333334,26.44825,79.84158333333335
434,2018-04-02,52.3525,27.326166666666666,79.67866666666666
434,2018-04-03,53.369166666666665,27.218791666666664,80.58795833333333
434,2018-04-04,52.98875,25.61691666666667,78.60566666666668
434,2018-04-05,51.83083333333334,26.382333333333335,78.21316666666667
434,2018-04-06,51.34291666666667,26.144333333333336,77.48725
434,2018-04-07,5.576250000000001,76.473625,82.049875
434,2018-04-08,43.76458333333333,37.58870833333334,81.35329166666666
434,2018-04-09,51.25791666666667,27.099541666666667,78.35745833333334
434,2018-04-10,49.971666666666664,26.723791666666667,76.69545833333333
434,2018-04-11,52.6625,25.970249999999997,78.63275
434,2018-04-12,50.76,25.71304166666667,76.47304166666666
434,2018-04-13,50.70708333333334,25.939666666666668,76.64675
434,2018-04-14,50.270833333333336,27.223041666666663,77.493875
434,2018-04-15,53.08625,30.250333333333334,83.33658333333334
434,2018-04-16,53.65,27.325875,80.975875
434,2018-04-17,48.43625,29.815583333333333,78.25183333333334
434,2018-04-18,50.46041666666667,26.848583333333334,77.309
434,2018-04-19,51.00208333333333,27.61508333333333,78.61716666666666
434,2018-04-20,48.364583333333336,29.71575,78.08033333333333
434,2018-04-21,42.87041666666667,34.623083333333334,77.49350000000001
434,2018-04-22,47.69625,28.89425,76.59049999999999